Date String (YYYY-MM-DD hh:mm:ss) UTC,Instrument flags,Ambient pressure (hPa),Sample flow (lpm),Bypass flow (lpm),Sample temperature (°C),Ambient temperature (°C),ASC tube jacket temperature (°C),LED temperature (°C),Box temperature (°C),Sample RH (%),Span deviation,Mass concentration (μg/m³),Mass concentration (μg/m³),Mass concentration (μg/m³)
DateTimeUTC,F1_M11,P_M11,Q1_M11,Q2_M11,T1_M11,T2_M11,T3_M11,T4_M11,T5_M11,U1_M11,ZSPAN_M11,X0_M11,X2_M11,X1_M11
2022-12-04 13:00:00,,0828.2,5.00,0.00,22.3,21.2,00.0,31.2,24.2,14.5,0000.0,0008.83,0003.45,0002.70
2022-12-04 13:01:00,,0828.3,5.00,0.00,22.3,21.2,00.0,31.2,24.2,14.4,0000.0,0009.13,0003.47,0002.70
2022-12-04 13:02:00,,0828.2,5.00,0.00,22.3,21.2,00.0,31.2,24.2,14.3,0000.0,0009.57,0003.52,0002.72
2022-12-04 13:03:00,,0828.2,5.00,0.00,22.3,21.2,00.0,31.2,24.2,14.1,0000.0,0009.74,0003.55,0002.73
2022-12-04 13:04:00,,0828.2,5.00,0.00,22.3,21.1,00.0,31.2,24.2,14.2,0000.0,0009.79,0003.57,0002.73
2022-12-04 13:05:00,,0828.3,5.00,0.00,22.3,21.1,00.0,31.2,24.2,14.2,0000.0,0010.02,0003.59,0002.74
2022-12-04 13:06:00,,0828.2,5.00,0.00,22.3,21.1,00.0,31.2,24.2,14.0,0000.0,0010.75,0003.59,0002.73
2022-12-04 13:07:00,,0828.2,5.00,0.00,22.3,21.1,00.0,31.2,24.2,14.0,0000.0,0011.15,0003.57,0002.74
2022-12-04 13:08:00,,0828.2,5.00,0.00,22.3,21.1,00.0,31.2,24.2,13.9,0000.0,0011.22,0003.55,0002.74
2022-12-04 13:09:00,,0828.1,5.00,0.00,22.3,21.1,00.0,31.2,24.1,14.0,0000.0,0011.25,0003.54,0002.74
2022-12-04 13:10:00,,0828.1,5.00,0.00,22.3,21.1,00.0,31.2,24.2,13.8,0000.0,0011.08,0003.50,0002.73
2022-12-04 13:11:00,,0828.1,5.00,0.00,22.3,21.1,00.0,31.2,24.1,13.7,0000.0,0009.87,0003.50,0002.75
2022-12-04 13:12:00,,0828.1,5.01,0.00,22.3,21.1,00.0,31.2,24.2,13.7,0000.0,0009.08,0003.50,0002.75
2022-12-04 13:13:00,,0828.2,5.01,0.00,22.3,21.1,00.0,31.2,24.2,14.0,0000.0,0008.66,0003.46,0002.76
2022-12-04 13:14:00,,0828.2,5.00,0.00,22.3,21.1,00.0,31.2,24.2,14.5,0000.0,0008.54,0003.49,0002.81
2022-12-04 13:15:00,,0828.2,5.00,0.00,22.3,21.1,00.0,31.2,24.1,14.5,0000.0,0008.90,0003.51,0002.86
2022-12-04 13:16:00,,0828.2,5.00,0.00,22.3,21.0,00.0,31.2,24.1,14.2,0000.0,0008.75,0003.51,0002.88
2022-12-04 13:17:00,,0828.1,4.99,0.00,22.3,21.0,00.0,31.2,24.0,14.1,0000.0,0008.11,0003.56,0002.91
2022-12-04 13:18:00,,0828.1,4.99,0.00,22.2,21.0,00.0,31.2,24.0,14.0,0000.0,0007.69,0003.59,0002.93
2022-12-04 13:19:00,,0828.1,4.99,0.00,22.2,20.9,00.0,31.2,23.9,13.9,0000.0,0007.57,0003.59,0002.94
2022-12-04 13:20:00,,0828.2,5.01,0.00,22.2,20.9,00.0,31.2,24.0,13.9,0000.0,0007.60,0003.59,0002.94
2022-12-04 13:21:00,,0828.2,5.00,0.00,22.2,20.9,00.0,31.2,24.1,13.9,0000.0,0008.13,0003.60,0002.94
2022-12-04 13:22:00,,0828.2,5.00,0.00,22.2,20.9,00.0,31.2,24.0,13.9,0000.0,0008.19,0003.60,0002.93
2022-12-04 13:23:00,,0828.2,5.00,0.00,22.2,21.0,00.0,31.2,24.1,13.9,0000.0,0008.17,0003.58,0002.94
2022-12-04 13:24:00,,0828.2,5.00,0.00,22.2,21.0,00.0,31.2,24.0,13.9,0000.0,0008.75,0003.58,0002.94
2022-12-04 13:25:00,,0828.1,5.00,0.00,22.2,21.0,00.0,31.2,24.0,13.9,0000.0,0008.94,0003.54,0002.89
2022-12-04 13:26:00,,0828.1,5.00,0.00,22.2,20.9,00.0,31.2,24.0,13.9,0000.0,0008.98,0003.52,0002.85
2022-12-04 13:27:00,,0828.1,5.00,0.00,22.2,20.9,00.0,31.2,24.1,14.1,0000.0,0008.77,0003.48,0002.84
2022-12-04 13:28:00,,0828.1,5.00,0.00,22.2,20.9,00.0,31.2,24.1,14.3,0000.0,0008.61,0003.45,0002.84
2022-12-04 13:29:00,,0828.1,5.00,0.00,22.2,20.9,00.0,31.2,24.1,14.1,0000.0,0008.60,0003.44,0002.84
2022-12-04 13:30:00,,0828.1,5.00,0.00,22.2,20.9,00.0,31.2,24.0,14.0,0000.0,0008.71,0003.46,0002.83
2022-12-04 13:31:00,,0828.1,4.99,0.00,22.2,20.9,00.0,31.2,24.0,14.0,0000.0,0008.76,0003.46,0002.83
2022-12-04 13:32:00,,0828.1,4.99,0.00,22.2,20.9,00.0,31.2,23.9,14.0,0000.0,0008.35,0003.47,0002.84
2022-12-04 13:33:00,,0828.0,5.00,0.00,22.2,20.9,00.0,31.2,23.9,14.1,0000.0,0008.68,0003.51,0002.85
2022-12-04 13:34:00,,0828.0,5.00,0.00,22.2,20.8,00.0,31.1,23.9,14.2,0000.0,0008.70,0003.52,0002.84
2022-12-04 13:35:00,,0828.1,5.00,0.00,22.2,20.8,00.0,31.1,23.9,14.1,0000.0,0008.38,0003.54,0002.84
2022-12-04 13:36:00,,0828.1,5.01,0.00,22.2,20.8,00.0,31.1,23.9,14.1,0000.0,0007.99,0003.54,0002.84
2022-12-04 13:37:00,,0828.1,5.01,0.00,22.2,20.8,00.0,31.1,23.8,14.2,0000.0,0008.04,0003.52,0002.84
2022-12-04 13:38:00,,0828.2,5.01,0.00,22.1,20.8,00.0,31.1,23.8,14.2,0000.0,0008.44,0003.51,0002.81
2022-12-04 13:39:00,,0828.2,5.00,0.00,22.1,20.8,00.0,31.1,23.8,14.2,0000.0,0008.60,0003.55,0002.80
2022-12-04 13:40:00,,0828.1,4.99,0.00,22.1,20.7,00.0,31.1,23.8,14.1,0000.0,0008.71,0003.56,0002.78
2022-12-04 13:41:00,,0828.1,4.99,0.00,22.1,20.7,00.0,31.1,23.8,14.5,0000.0,0008.86,0003.54,0002.77
2022-12-04 13:42:00,,0828.1,4.99,0.00,22.1,20.7,00.0,31.1,23.8,14.3,0000.0,0008.91,0003.51,0002.76
2022-12-04 13:43:00,,0828.1,5.01,0.00,22.1,20.7,00.0,31.1,23.9,14.1,0000.0,0008.87,0003.53,0002.75
2022-12-04 13:44:00,,0828.1,5.01,0.00,22.1,20.7,00.0,31.1,23.8,14.0,0000.0,0008.58,0003.49,0002.74
2022-12-04 13:45:00,,0828.1,5.01,0.00,22.1,20.7,00.0,31.1,23.8,14.0,0000.0,0008.44,0003.48,0002.74
2022-12-04 13:46:00,,0828.1,5.00,0.00,22.1,20.7,00.0,31.1,23.8,14.0,0000.0,0008.38,0003.46,0002.73
2022-12-04 13:47:00,,0828.1,5.00,0.00,22.1,20.7,00.0,31.1,23.8,14.0,0000.0,0008.33,0003.44,0002.73
2022-12-04 13:48:00,,0828.1,4.99,0.00,22.1,20.7,00.0,31.1,23.9,13.9,0000.0,0007.98,0003.45,0002.72
2022-12-04 13:49:00,,0828.1,4.99,0.00,22.1,20.7,00.0,31.1,23.9,13.9,0000.0,0007.73,0003.48,0002.73
2022-12-04 13:50:00,,0828.0,5.00,0.00,22.1,20.7,00.0,31.0,23.8,13.8,0000.0,0007.79,0003.45,0002.71
2022-12-04 13:51:00,,0828.0,5.00,0.00,22.1,20.7,00.0,31.0,23.9,13.8,0000.0,0007.72,0003.43,0002.71
2022-12-04 13:52:00,,0828.1,5.01,0.00,22.1,20.7,00.0,31.1,24.0,13.8,0000.0,0007.70,0003.41,0002.71
2022-12-04 13:53:00,,0828.0,5.00,0.00,22.1,20.7,00.0,31.0,23.9,14.1,0000.0,0007.83,0003.44,0002.71
2022-12-04 13:54:00,,0828.0,5.01,0.00,22.1,20.7,00.0,31.0,23.9,14.1,0000.0,0007.97,0003.43,0002.71
2022-12-04 13:55:00,,0828.0,5.00,0.00,22.1,20.7,00.0,31.0,23.8,14.1,0000.0,0008.16,0003.41,0002.69
2022-12-04 13:56:00,,0828.0,5.01,0.00,22.0,20.7,00.0,31.0,23.7,14.2,0000.0,0008.12,0003.38,0002.67
2022-12-04 13:57:00,,0828.0,4.99,0.00,22.0,20.7,00.0,31.0,23.8,14.1,0000.0,0008.07,0003.36,0002.65
2022-12-04 13:58:00,,0827.9,4.99,0.00,22.0,20.7,00.0,31.0,23.8,14.1,0000.0,0008.22,0003.36,0002.64
2022-12-04 13:59:00,,0827.9,5.01,0.00,22.0,20.7,00.0,31.0,23.8,14.1,0000.0,0008.52,0003.37,0002.66
